User: anonymous   Login
Location: Br�znic
(45.9167°N, 22.6500°E)
Time: 02:04:35
(UTC+00:00)
Language:

Cosmos 2219 Rocket - Orbit

View from above orbital plane
View from above orbital plane
View from above satellite
View from above satellite

Ground track
Ground track

The orbit data is extracted from the following two-line orbital elements,

1 22220U 92076B   21127.57305701 -.00000163  00000-0 -57812-4 0  9992
2 22220  70.9992 309.2866 0015089 268.4896 148.7325 14.16467819471577
Epoch (UTC): 07 May 2021 13:45:12
Eccentricity: 0.0015089
inclination: 70.9992°
perigee height: 826 km
apogee height: 848 km
right ascension of ascending node: 309.2866°
argument of perigee: 268.4896°
revolutions per day: 14.16467819
mean anomaly at epoch: 148.7325°
orbit number at epoch: 47157

The dashed part of the orbit path shows where the satellite is in the earth's shadow,  

DLR